Wind_Speed
33 40 46 51 53 55 56 56 56 54 53 54 55 57 61 63 65 67 67 69 68 62 59 64 72 74 72 69 65 59 57 58 60 61 61 59 55 55 59 64 66 64 62 56 51 49 47 45 45 45 45 44 42 38 34 32 32 34 36 36 35 34 34 33 34 33 31 30 29 28 26 24 22 21 21 20 19 19 18 17 17 18 18 19 19 18
33 40 43 45 47 48 50 53 54 53 53 51 52 54 57 60 62 61 61 64 64 59 56 60 68 74 72 68 65 64 62 58 58 59 60 61 60 60 63 67 68 65 64 61 55 50 47 46 46 46 46 45 42 39 35 33 34 36 36 35 35 35 35 34 34 32 30 30 29 28 25 22 20 20 20 20 20 19 19 19 18 18 19 19 19 18
34 40 39 40 42 43 45 49 52 53 53 52 52 52 55 58 58 56 55 57 59 57 55 54 60 71 73 67 61 61 61 59 58 57 56 59 63 65 67 69 68 64 61 59 55 50 46 45 45 46 47 46 42 40 37 35 37 37 35 35 35 36 35 34 33 31 30 29 29 27 23 21 20 20 21 22 21 20 19 19 18 18 19 19 19 18
34 37 34 35 38 40 41 44 49 52 53 54 52 52 54 54 54 55 52 52 55 56 55 53 56 62 64 60 56 55 56 57 60 60 58 59 60 61 63 65 65 63 60 58 56 52 46 43 43 45 47 46 43 41 38 38 39 38 36 35 35 36 36 34 32 30 29 28 27 25 22 21 20 20 20 21 21 20 18 17 17 18 19 19 19 19
32 33 31 32 34 36 37 40 45 50 53 54 53 53 52 52 52 55 51 44 44 51 54 53 54 58 58 53 53 56 57 59 62 62 62 62 61 60 60 62 62 61 58 56 56 51 43 40 41 43 45 45 43 40 38 39 40 39 37 35 35 36 36 34 31 29 28 26 25 23 21 21 20 19 19 20 21 20 17 15 16 19 20 20 20 20
29 29 29 31 32 31 32 36 41 47 51 53 54 52 51 51 51 53 52 40 33 42 51 49 51 59 60 53 51 57 59 60 62 63 63 62 63 62 61 60 60 59 55 53 53 47 40 39 40 41 43 43 39 38 37 39 40 39 37 36 36 36 36 33 31 28 26 25 23 22 21 21 21 21 20 21 21 20 18 17 17 18 19 19 20 21
27 28 28 30 31 26 26 30 36 43 48 50 52 50 49 51 51 52 52 44 34 36 44 48 49 55 58 51 46 51 56 58 60 63 64 62 62 62 59 58 59 58 54 50 49 45 40 39 38 36 37 36 34 35 36 37 36 36 36 36 36 36 36 33 29 27 24 23 21 21 21 22 22 22 22 22 21 20 20 19 18 18 18 18 19 20
26 27 28 29 29 25 23 26 30 36 44 48 48 47 47 48 51 52 50 47 40 34 37 43 47 49 51 52 49 48 51 57 59 60 62 62 62 60 58 59 59 57 54 49 48 46 42 39 34 31 31 29 30 33 35 34 33 33 35 36 36 37 35 32 28 25 24 22 20 20 21 22 22 22 23 22 21 20 19 19 19 19 19 19 19 19
24 27 28 28 30 29 26 24 25 29 38 46 46 44 42 42 46 50 51 49 46 41 39 39 42 48 52 53 54 52 51 58 61 60 61 63 63 60 57 59 58 56 54 49 47 47 44 39 33 30 29 28 30 32 32 31 32 34 35 35 36 36 33 30 26 24 24 22 21 21 21 21 22 23 23 22 20 18 18 18 18 19 19 19 19 19
24 27 27 28 31 33 29 24 22 24 31 40 44 41 37 34 35 45 51 50 49 48 44 38 39 46 52 52 52 52 53 61 64 62 62 62 62 60 58 57 56 55 54 49 47 48 45 40 35 33 32 31 30 30 29 29 31 33 34 34 34 33 31 28 25 23 23 22 22 21 21 21 21 22 22 20 18 18 17 18 18 18 18 18 18 18
24 26 29 30 32 35 33 29 26 24 25 33 39 38 36 32 27 36 47 50 52 52 44 40 39 40 46 50 49 46 47 56 61 61 61 60 60 60 58 56 54 53 53 51 50 49 46 42 38 36 37 35 32 30 28 28 30 31 32 32 32 30 28 26 24 22 22 22 21 20 20 21 21 22 21 18 17 18 17 17 17 17 17 17 18 18
23 26 30 30 31 34 36 33 31 28 26 30 36 34 34 33 27 29 41 50 58 56 47 44 41 38 41 46 46 45 43 46 52 57 59 58 56 57 57 55 53 53 51 50 50 49 47 44 39 38 39 36 33 30 28 28 29 30 30 30 29 28 27 25 23 22 21 20 20 20 20 20 21 20 18 17 16 16 16 16 16 17 18 18 18 18
22 25 28 29 28 33 37 35 33 31 28 32 38 36 33 34 31 29 38 51 60 58 51 49 44 41 45 46 44 47 48 47 50 55 56 52 49 49 51 53 54 53 49 47 48 48 48 44 39 40 39 36 33 30 28 28 29 29 29 28 28 27 27 24 22 20 19 19 19 20 20 19 19 17 15 14 15 15 16 16 17 18 19 19 18 18
21 23 28 29 28 32 36 36 34 31 29 34 40 40 36 35 32 31 38 50 57 56 52 51 47 45 46 47 45 45 48 50 53 58 55 50 47 43 45 51 54 51 46 45 47 48 47 42 38 40 38 35 32 29 28 29 29 29 28 28 28 28 26 23 21 19 19 19 19 20 19 18 17 15 13 13 14 15 16 16 17 18 18 18 18 17
20 21 26 29 29 29 31 34 34 31 31 37 41 40 39 38 30 28 36 47 52 53 53 49 47 49 44 39 40 41 41 42 45 50 49 46 46 42 42 48 51 49 45 45 47 47 44 39 37 38 36 32 31 29 30 31 31 30 29 29 29 27 24 21 20 19 19 19 19 19 18 16 15 13 12 13 14 15 15 16 16 17 16 17 17 17
18 18 21 28 30 29 30 30 30 32 34 38 42 40 41 41 30 26 34 42 46 48 54 53 49 50 43 32 33 38 38 36 33 32 32 37 43 42 41 43 46 47 46 47 47 44 40 37 37 37 34 31 31 31 32 33 32 31 30 30 28 25 22 21 20 20 20 19 19 18 17 15 13 11 12 13 14 14 15 16 16 16 17 18 19 18
17 16 18 25 30 30 31 30 30 34 35 39 44 42 42 41 30 24 30 38 42 45 51 54 49 46 42 36 35 33 31 34 33 27 25 32 40 43 42 40 41 45 46 46 46 42 39 38 38 36 32 29 31 32 32 33 33 32 31 29 26 23 22 22 21 20 20 19 19 18 16 14 13 11 12 13 13 13 15 16 17 17 18 19 19 18
18 17 17 21 26 28 29 31 33 35 36 39 44 41 39 41 33 24 28 36 42 44 49 52 47 42 39 39 38 30 27 35 38 31 28 32 37 40 41 40 39 41 44 45 44 42 40 40 39 35 30 29 31 33 34 34 35 33 30 28 25 24 24 23 22 21 20 19 18 18 16 14 13 11 12 12 12 13 15 17 17 17 18 18 18 17
15 16 17 20 25 28 30 33 35 38 39 38 41 41 39 40 35 27 29 35 41 45 49 51 47 39 35 37 37 32 30 38 41 35 32 34 37 38 38 39 39 40 44 47 46 43 40 41 40 35 30 30 33 36 37 38 35 31 29 27 26 25 25 23 22 20 19 19 18 18 17 15 13 12 12 12 12 13 15 17 17 17 18 17 16 16
8 9 12 18 23 28 32 35 37 41 42 38 39 44 42 39 36 31 30 34 42 46 45 47 45 36 32 36 35 30 30 34 39 37 35 36 38 39 38 38 39 40 44 46 46 42 39 39 39 34 31 32 34 37 39 38 34 30 28 27 26 26 25 23 21 20 19 19 18 18 17 15 13 12 12 12 12 14 16 17 17 17 17 16 16 16
3 3 6 13 19 24 29 35 39 40 42 39 39 44 44 39 36 32 30 35 44 44 36 39 43 35 33 38 35 28 23 26 36 39 37 38 38 38 39 38 37 40 43 44 45 41 38 38 37 33 32 34 36 38 39 38 34 30 28 27 27 26 25 23 21 20 20 19 19 19 18 16 14 13 13 12 13 14 16 17 17 17 17 16 16 15
1 3 3 9 15 21 24 31 37 39 41 40 38 42 44 39 36 32 29 34 44 44 33 31 35 34 36 39 36 28 19 23 36 40 37 37 37 38 39 37 34 37 38 39 40 38 37 38 36 33 33 34 37 38 39 37 33 30 29 28 27 26 24 22 21 20 20 19 20 20 19 17 15 14 13 13 13 14 15 17 18 18 18 17 17 17
7 6 2 7 11 15 19 27 36 39 40 40 37 40 44 41 36 30 25 28 37 44 39 31 29 31 34 35 34 27 19 23 34 37 35 34 35 37 38 34 31 33 34 32 32 31 34 37 35 33 33 35 37 38 38 35 32 31 30 28 28 26 24 23 22 21 20 20 20 20 19 17 16 15 14 13 12 14 16 17 18 19 18 18 18 18
6 4 3 7 11 13 17 25 32 36 40 41 37 39 45 41 32 28 25 24 28 37 44 43 39 36 33 31 31 27 22 25 33 37 37 34 34 36 38 35 32 32 33 32 30 27 29 33 34 33 33 35 37 38 36 34 32 31 30 29 28 26 24 24 23 22 20 20 21 21 19 18 17 16 14 12 12 14 16 17 18 19 19 19 19 18
7 7 7 8 13 15 17 24 30 34 39 39 34 39 45 38 30 28 25 23 26 29 34 42 49 50 43 34 31 29 27 29 34 40 41 37 36 37 39 37 34 33 34 33 33 29 27 30 34 34 33 34 36 36 35 34 33 31 29 29 28 26 25 24 24 22 20 21 21 21 19 18 17 16 14 12 12 14 16 17 18 19 19 19 18 17
9 8 9 11 15 16 17 24 27 29 31 29 29 41 46 37 31 28 23 24 28 27 27 31 39 48 50 41 33 33 33 32 36 43 44 41 39 39 38 36 35 37 37 35 34 32 28 28 30 32 33 34 35 35 34 33 32 30 29 28 27 26 25 25 24 22 21 21 21 20 19 18 17 16 14 12 12 14 17 18 18 19 19 19 18 18
10 11 12 14 17 17 16 18 19 20 21 20 29 43 45 37 33 31 28 27 28 27 27 26 29 39 44 41 36 36 39 38 38 43 46 45 43 41 38 36 36 38 38 36 34 31 29 29 29 31 33 34 35 34 33 32 31 29 28 27 26 26 26 26 24 22 21 21 20 19 18 18 17 16 14 12 13 15 17 18 18 18 19 19 19 18
11 13 14 16 17 16 14 12 12 15 17 19 31 42 44 40 36 37 38 33 27 27 27 27 34 39 37 36 36 37 39 41 40 41 44 46 44 40 38 36 35 35 35 34 32 29 28 30 31 32 34 35 35 34 32 32 32 30 28 26 26 27 27 26 24 22 22 21 20 19 18 17 17 15 13 13 13 15 17 19 19 19 19 19 18 16
10 12 15 15 14 13 11 9 9 13 14 19 32 41 43 40 38 40 41 32 23 24 26 29 33 33 30 31 35 35 37 40 40 41 43 44 42 40 39 37 36 35 33 32 31 29 28 31 33 32 33 34 35 34 33 32 32 31 29 26 26 27 27 26 24 23 22 21 20 19 18 17 15 14 14 13 14 16 18 19 18 18 18 17 16 15
12 14 13 12 9 9 9 7 9 13 16 23 35 40 40 38 37 36 33 27 21 21 23 24 24 27 28 31 34 36 37 39 39 40 41 41 39 38 38 38 37 36 34 32 32 31 30 32 34 33 32 33 34 33 32 31 31 30 28 26 26 28 28 26 24 23 23 22 21 20 19 16 15 14 14 14 15 17 19 18 17 18 18 17 16 15
14 14 9 7 9 11 12 10 8 9 14 26 37 38 36 36 34 29 25 25 24 21 19 18 19 25 29 29 32 36 38 40 39 38 38 37 37 36 36 36 35 34 33 33 34 34 33 33 34 33 32 33 33 32 32 30 30 30 29 28 28 29 28 27 25 24 23 23 23 21 19 16 15 14 14 15 16 18 19 17 17 17 17 17 16 16
15 11 6 8 12 12 13 11 6 5 11 25 37 39 37 34 29 25 24 24 21 17 16 16 19 27 29 30 33 33 35 38 38 36 35 35 35 35 34 33 32 31 32 33 34 33 32 32 31 31 31 32 32 32 32 31 32 31 30 28 29 30 29 27 25 25 24 24 23 21 19 17 16 15 15 16 17 18 18 16 16 17 18 18 18 17
9 10 8 10 13 11 12 10 8 7 11 22 33 39 38 32 23 22 24 23 18 15 15 15 19 27 30 32 34 32 32 33 33 34 36 34 33 34 33 33 32 32 31 31 30 29 29 29 28 29 31 31 31 32 32 33 34 32 30 29 30 31 29 26 25 25 24 23 22 21 19 17 16 16 17 18 18 18 17 16 16 17 18 19 19 19
7 14 10 9 10 9 10 10 10 10 12 17 26 34 37 31 23 21 24 22 19 16 15 16 16 21 29 35 35 33 33 31 32 36 37 34 34 35 34 33 34 33 31 28 27 27 28 29 29 30 32 32 31 32 34 35 35 33 31 31 32 31 29 26 25 24 23 22 21 19 18 17 16 17 18 19 18 18 18 17 17 18 19 20 20 20
11 13 11 7 8 9 9 11 14 13 13 15 22 30 35 34 27 22 21 20 18 16 16 15 11 12 23 33 34 35 36 35 36 36 33 32 33 32 31 32 33 32 30 29 29 29 28 28 30 31 31 31 31 32 34 35 34 33 33 33 33 31 27 25 24 23 21 20 19 18 18 17 17 18 19 19 18 18 18 18 19 19 20 21 21 22
11 12 12 8 6 7 8 13 16 15 15 18 21 25 30 34 32 26 22 19 17 17 17 16 12 10 15 21 28 35 36 34 35 35 31 29 30 29 29 32 32 32 31 30 30 29 25 25 27 28 28 30 32 33 33 33 33 33 34 34 33 29 27 26 24 22 20 19 19 19 19 19 18 19 19 19 19 20 20 20 21 21 21 22 23 24
10 9 10 10 6 3 4 12 16 16 18 21 23 26 28 29 30 30 27 23 22 20 18 16 14 11 10 14 23 31 33 32 33 33 30 29 30 30 30 31 32 33 32 30 29 29 26 24 25 27 29 31 33 33 33 33 33 34 35 35 32 29 28 26 24 22 21 20 20 22 22 22 21 21 20 20 21 22 22 22 22 23 23 24 25 26
8 7 9 10 8 6 2 8 12 17 20 22 24 27 29 29 29 30 27 24 25 26 24 20 16 11 11 15 18 21 28 33 33 32 32 32 31 30 31 31 30 30 30 29 29 30 30 28 28 30 33 34 34 34 33 33 35 36 36 34 31 30 28 26 24 23 21 22 23 25 26 25 24 23 23 23 24 24 24 24 24 24 25 26 26 27
6 6 8 8 6 4 2 3 7 14 20 23 24 26 28 30 31 31 27 24 25 27 28 27 20 13 12 16 17 16 22 29 32 31 31 30 28 27 28 28 27 26 26 28 31 32 31 30 31 33 35 35 34 33 33 35 36 37 35 33 31 30 28 26 25 23 23 24 26 27 27 27 27 27 26 25 26 26 26 26 26 26 26 27 27 27
5 5 6 6 5 4 2 1 5 9 14 19 24 26 27 29 31 31 30 27 24 25 29 32 27 18 13 15 17 15 15 21 27 29 28 26 24 22 22 22 23 24 25 28 30 30 29 29 30 33 34 34 33 33 35 36 37 36 33 32 32 30 28 27 26 25 25 26 27 27 27 28 29 28 26 25 26 27 27 27 27 27 27 27 27 28
5 6 5 5 5 5 4 1 5 7 7 11 18 22 24 27 30 31 30 28 24 23 27 34 35 30 21 16 15 12 9 13 19 21 22 22 20 18 17 19 21 22 24 27 28 28 28 29 30 31 33 34 34 34 35 36 36 34 33 33 32 30 29 28 27 26 26 26 26 26 27 29 29 27 26 26 27 27 27 27 26 26 27 27 27 27
7 7 4 3 4 5 5 3 5 7 6 7 13 17 19 22 26 29 28 27 25 23 25 31 37 37 34 27 20 15 12 14 14 15 17 18 16 15 16 16 17 19 21 24 26 27 28 29 30 32 34 35 34 34 35 36 36 35 34 33 32 30 30 29 28 27 26 26 26 26 27 29 29 27 27 27 26 26 26 26 26 26 27 27 26 27
8 7 5 6 6 5 5 4 3 6 6 6 9 13 16 17 19 23 25 25 25 24 25 28 33 37 38 36 30 25 23 22 19 16 15 14 13 14 15 15 15 18 21 22 25 27 28 28 29 32 34 34 35 35 37 37 36 35 34 33 32 31 30 29 28 28 27 27 27 27 27 28 27 26 26 26 26 27 26 26 26 26 26 26 25 26
9 9 8 9 9 7 5 5 5 5 6 7 9 11 14 15 15 18 22 24 25 26 26 27 31 35 37 36 34 33 32 30 25 21 19 16 14 14 15 15 16 19 22 23 25 27 28 28 30 33 34 35 36 36 36 36 35 35 34 33 32 31 29 28 28 29 29 28 27 26 26 26 25 25 26 26 27 27 27 26 26 26 26 25 25 26
9 9 9 10 10 8 6 7 8 7 6 7 10 12 13 13 15 18 22 23 26 29 30 30 32 34 35 34 36 38 39 35 30 28 26 24 22 19 18 18 18 20 22 23 24 26 28 29 31 34 35 35 35 35 35 35 34 34 33 32 31 30 29 29 29 29 29 28 26 25 25 25 25 25 26 26 26 26 26 26 26 26 26 26 27 28
8 9 10 11 11 8 7 9 10 8 6 7 10 13 13 13 14 18 21 24 26 29 31 32 32 33 34 35 37 38 39 37 35 36 35 32 29 27 24 22 22 23 23 24 24 25 27 30 32 33 35 35 35 35 34 34 33 33 32 31 30 29 29 29 28 27 26 25 24 24 24 24 24 25 25 24 25 25 26 27 27 28 29 30 30 32
9 8 9 9 9 8 7 9 9 8 8 8 10 14 13 13 15 17 20 24 24 26 29 32 33 33 34 36 36 36 36 36 36 40 41 38 34 33 31 26 24 25 25 26 28 29 30 31 31 32 34 34 34 33 33 33 33 32 31 30 29 28 27 26 24 23 22 22 22 22 23 23 24 24 24 24 25 26 27 28 29 31 32 33 34 34
9 8 8 8 9 10 9 8 7 8 9 9 8 13 14 14 15 16 18 21 20 23 29 33 34 34 35 34 34 34 34 34 36 38 41 38 34 33 32 30 29 29 30 30 31 32 33 33 32 32 33 32 32 32 32 32 31 30 30 29 28 26 25 23 22 21 21 22 22 22 23 24 24 25 25 26 27 29 30 31 32 34 35 36 37 38
11 9 9 9 9 11 11 9 7 7 9 8 8 11 13 15 15 15 18 20 17 18 27 33 33 33 33 31 31 32 32 33 37 39 39 36 32 30 29 30 32 33 35 35 34 32 33 33 33 33 33 32 31 31 30 30 29 28 28 28 26 26 25 23 22 21 21 22 22 23 24 24 25 26 27 29 30 31 32 33 34 35 36 38 39 39
12 11 11 11 11 13 12 9 7 6 6 7 8 10 12 13 13 14 18 20 16 16 25 30 30 30 31 30 30 31 32 34 38 40 37 33 30 27 25 28 33 34 35 37 37 35 35 36 35 35 34 32 31 30 28 28 27 26 26 26 25 24 23 22 21 21 21 22 23 24 25 26 27 28 30 31 31 32 33 34 35 35 37 38 38 39
14 12 10 10 13 14 13 10 8 6 5 5 7 9 10 11 11 12 16 19 18 19 23 26 27 28 28 28 29 30 32 34 36 36 35 33 32 29 25 26 31 32 31 33 37 38 37 37 35 34 32 31 30 29 28 27 26 25 24 23 22 21 21 20 20 21 22 23 23 25 26 27 28 29 30 30 30 31 32 33 34 35 36 37 37 37
Wind_Direction
255 246 240 235 232 229 227 227 228 228 228 229 228 228 228 227 227 228 229 228 226 225 226 230 233 233 233 233 229 227 229 228 223 221 223 222 223 229 234 238 243 244 245 246 246 250 256 254 256 259 259 261 264 265 265 265 266 267 271 275 278 282 283 283 285 286 289 291 291 292 294 295 294 295 296 297 298 300 300 297 299 299 297 294 293 294
254 248 241 236 234 231 229 226 227 226 225 227 227 226 226 225 225 226 227 227 226 224 224 230 235 235 235 234 231 227 227 230 231 230 228 225 223 228 234 239 243 246 247 250 251 250 250 251 256 258 259 260 263 265 265 264 265 267 272 275 277 279 279 280 282 283 286 289 289 292 293 292 291 292 293 294 296 300 300 298 297 296 294 291 287 288
253 249 242 235 234 233 230 226 225 224 224 224 225 225 225 224 223 223 224 225 224 222 221 225 232 235 236 236 234 232 229 228 231 233 231 229 228 229 233 238 243 246 249 251 252 250 249 251 254 256 258 260 261 262 262 263 264 267 273 276 275 275 275 276 277 280 285 287 288 290 289 286 287 290 293 296 299 301 299 295 293 292 292 290 285 286
255 253 245 235 233 234 232 227 224 223 222 223 223 224 224 222 222 221 219 220 221 220 220 221 226 232 235 235 231 230 229 227 229 231 231 231 232 233 236 239 244 247 249 251 252 251 248 248 252 254 257 259 259 260 260 261 263 265 270 274 271 270 272 272 275 280 283 284 286 286 283 282 284 290 295 299 302 303 298 291 289 289 289 289 285 286
257 254 246 235 231 233 233 229 224 222 221 221 220 222 222 219 220 221 217 216 220 220 219 220 224 227 230 232 230 228 229 230 230 231 232 233 235 237 239 241 245 247 246 247 249 248 246 247 251 254 256 258 259 260 260 260 261 262 265 269 268 268 269 271 274 277 278 280 281 280 279 279 281 286 291 296 301 303 298 288 287 287 285 283 282 284
257 252 243 233 229 228 229 228 224 222 221 221 220 218 220 218 217 219 215 207 211 217 215 217 224 228 229 231 233 232 231 232 232 232 232 234 237 239 241 244 245 245 243 242 245 247 246 246 250 254 257 259 261 261 260 259 260 260 261 264 265 266 268 270 272 273 274 275 275 275 275 276 279 281 286 292 297 298 295 289 290 291 287 283 281 282
254 249 239 230 226 223 225 225 222 222 221 220 220 217 217 218 216 216 214 203 200 210 211 213 223 229 227 225 230 233 232 231 232 233 232 233 237 239 240 243 243 243 243 242 245 248 246 246 248 253 259 262 263 260 258 258 258 259 260 261 262 263 266 268 269 269 269 268 269 271 272 274 277 281 286 289 292 293 291 289 292 294 291 287 285 284
251 246 238 226 218 215 221 224 220 221 223 220 217 216 216 217 217 216 212 204 199 199 202 209 221 229 225 218 220 228 232 231 230 233 234 233 234 236 238 241 242 243 243 243 244 246 246 245 245 251 260 262 259 256 256 257 257 257 259 259 260 261 263 266 266 264 262 261 264 268 270 273 277 281 284 285 287 289 288 286 286 287 287 287 287 287
247 240 236 227 216 210 212 219 220 221 225 220 215 214 213 215 218 217 212 204 198 197 197 200 212 224 226 220 220 224 229 233 232 231 234 235 234 234 235 238 241 243 245 243 243 245 246 244 242 249 255 254 253 254 256 257 255 254 257 257 258 259 262 263 261 258 255 256 260 265 270 274 277 279 280 281 283 285 284 282 281 281 284 285 286 287
245 234 229 221 214 209 205 207 214 222 227 221 215 211 208 209 216 219 215 204 200 203 199 193 197 214 226 224 221 225 230 235 234 231 231 234 236 235 234 236 238 242 244 244 243 245 246 243 242 247 248 248 252 255 256 255 252 252 254 255 257 258 260 259 256 253 252 254 259 266 272 274 276 276 277 280 281 281 282 282 281 282 284 285 286 290
250 234 227 219 211 206 200 199 203 211 220 217 212 207 201 200 206 218 215 204 205 208 198 190 191 204 224 228 221 221 230 235 235 234 232 232 235 236 236 236 237 239 242 243 244 247 247 243 243 246 243 246 254 255 256 255 252 251 251 253 255 257 257 255 252 249 249 254 261 268 273 273 273 273 277 281 281 281 282 281 282 283 284 285 288 290
256 236 228 226 219 207 202 201 199 200 206 205 201 196 195 195 196 213 211 203 210 211 196 190 191 196 215 224 220 216 222 231 234 235 235 233 232 235 237 237 237 237 238 241 244 246 247 244 242 243 242 246 253 255 256 256 253 251 251 252 254 254 254 251 248 246 248 255 262 266 269 270 270 273 277 280 280 280 280 279 281 281 282 284 286 288
257 239 228 227 222 209 206 206 201 197 196 196 194 188 188 193 196 208 206 202 211 211 198 191 192 199 207 209 214 217 217 223 231 235 235 234 233 233 234 233 234 236 235 237 242 245 246 244 241 242 244 248 252 253 254 253 252 252 251 253 254 252 251 249 246 245 249 255 258 262 265 266 268 271 274 276 277 278 278 279 280 280 282 285 287 288
255 237 225 225 219 207 207 209 205 199 192 190 191 188 187 191 199 208 203 202 210 210 199 191 194 204 205 202 207 215 218 221 229 235 236 235 236 236 235 232 231 233 233 235 239 242 244 244 244 245 247 248 248 248 250 250 251 250 250 251 251 250 250 247 244 245 248 252 255 259 262 263 264 267 271 274 277 278 279 280 280 281 283 285 287 289
254 237 223 222 221 214 212 213 210 206 198 189 186 188 188 187 194 207 203 204 210 207 197 193 199 203 200 201 207 212 217 220 227 234 235 234 236 237 237 234 230 230 231 232 235 238 241 244 247 247 247 246 244 244 247 248 249 248 247 248 249 249 248 245 242 243 246 250 254 256 257 259 261 264 269 274 277 280 281 281 280 281 283 285 288 290
249 238 220 216 221 221 216 214 211 210 206 191 185 188 188 184 189 202 201 205 211 206 197 196 202 199 192 195 208 212 214 213 215 222 226 230 232 234 236 234 228 225 226 229 232 235 239 241 244 246 246 245 242 242 244 246 246 246 246 247 248 249 246 242 240 242 245 249 252 253 252 255 259 262 268 273 276 279 281 281 280 282 285 288 290 290
243 234 220 217 221 221 217 212 207 208 207 195 189 189 186 183 188 201 200 203 210 207 199 199 200 196 192 193 198 205 210 209 207 205 212 226 230 232 236 235 227 223 225 229 232 235 237 239 243 245 245 243 239 240 242 244 244 244 245 247 248 246 242 239 239 240 244 248 250 250 250 252 256 261 267 272 275 279 281 281 283 286 288 288 289 290
242 234 229 227 224 221 218 212 207 206 205 199 193 187 183 185 191 202 201 201 207 205 198 199 199 196 198 197 191 190 191 196 200 201 209 223 229 232 235 235 229 224 226 230 232 234 235 238 241 242 242 240 236 236 239 241 242 242 244 246 246 243 239 238 238 239 243 247 249 249 250 251 255 261 267 271 275 279 282 284 288 290 288 287 288 287
245 243 237 234 226 219 216 214 210 207 203 199 192 184 182 189 194 200 200 199 203 203 197 199 200 196 195 192 188 190 190 189 191 197 206 217 227 232 234 237 232 224 225 229 231 232 232 236 240 240 239 237 233 233 236 239 241 241 243 245 244 241 239 237 237 239 244 247 250 251 251 251 255 261 267 271 276 280 283 287 290 290 288 286 287 283
239 243 233 234 227 216 215 213 209 206 201 195 191 187 186 191 194 196 197 194 197 201 199 197 198 194 186 181 181 191 200 193 188 193 203 212 224 231 235 240 235 223 223 228 231 233 232 235 239 238 237 234 230 231 235 239 241 240 241 243 242 241 240 237 237 240 245 249 252 253 252 253 256 262 267 271 276 280 284 288 291 291 288 286 285 281
190 194 212 230 223 212 213 211 206 204 199 194 191 190 190 189 189 192 192 190 194 199 194 190 194 189 177 176 177 182 197 194 188 194 204 212 222 230 236 241 236 225 224 228 231 233 232 233 235 234 232 230 227 228 232 236 237 237 238 240 241 241 240 238 238 241 246 250 252 253 254 256 258 263 266 270 275 280 285 289 292 291 289 287 283 279
1 332 245 220 214 211 209 206 204 200 196 196 191 187 189 187 186 189 184 183 194 202 195 187 190 182 173 179 180 179 191 189 185 194 205 215 222 227 234 241 237 227 225 229 232 231 229 231 231 230 229 227 225 226 231 234 235 235 236 238 240 241 240 238 238 242 246 249 252 254 257 259 261 263 265 269 275 280 284 288 292 292 291 289 284 279
344 343 274 196 193 202 195 189 195 197 195 196 190 186 191 190 187 186 172 171 191 203 207 203 192 177 175 186 186 180 189 189 187 197 207 218 227 228 233 238 233 225 224 228 232 229 226 228 229 230 228 225 224 226 229 233 233 233 234 236 239 241 239 237 239 243 246 249 253 255 258 261 261 262 264 268 275 280 283 286 290 292 292 291 287 283
356 40 125 163 152 160 169 173 187 195 197 197 191 189 193 188 180 173 162 166 183 195 206 213 208 192 183 186 184 179 190 195 196 205 209 214 224 230 233 233 226 222 222 225 230 225 220 222 225 227 226 223 223 225 227 230 231 231 233 235 238 239 237 237 239 243 246 250 253 255 258 260 260 260 262 267 273 279 282 284 288 291 292 291 289 287
29 84 119 142 135 138 155 169 182 191 194 198 194 188 188 181 171 168 166 177 188 190 200 209 211 205 195 188 185 186 192 194 195 206 213 214 217 224 230 228 222 220 221 225 230 227 219 218 221 224 225 222 222 223 225 227 229 231 233 235 237 238 236 237 240 244 247 250 253 256 258 257 258 259 259 264 272 277 280 282 285 288 289 290 289 287
55 97 123 137 136 134 151 166 177 184 189 196 189 183 184 177 170 175 177 184 193 199 206 210 208 203 198 196 198 202 205 200 194 202 213 218 218 222 227 225 221 221 222 227 233 232 225 221 220 221 220 219 220 221 223 225 228 229 231 234 236 236 235 237 241 245 247 250 252 255 257 256 256 257 258 262 268 274 278 280 282 284 285 286 287 285
95 123 133 145 149 145 147 156 169 180 186 188 180 180 185 180 174 181 183 183 192 204 210 204 189 186 189 191 195 203 210 210 203 203 211 218 221 224 225 223 223 225 224 226 230 231 228 224 220 217 216 216 218 220 222 223 225 225 228 233 235 235 235 238 242 245 245 247 250 253 254 255 256 257 258 261 266 272 276 277 277 278 279 281 283 284
109 133 142 151 158 157 149 140 154 179 189 185 179 180 185 184 181 186 187 185 194 204 200 184 175 179 184 186 190 199 203 205 207 208 212 217 221 224 225 221 220 222 221 223 227 229 227 225 222 218 215 217 218 219 221 221 221 222 225 230 234 234 235 239 242 244 243 244 247 250 253 255 257 259 260 261 265 270 272 273 272 272 274 277 281 285
105 126 140 147 155 160 156 140 154 184 195 189 182 181 184 185 184 187 190 189 198 205 192 178 179 187 188 185 193 201 199 198 205 210 214 218 220 223 223 218 216 219 221 224 228 229 224 222 222 219 216 216 218 220 221 220 220 222 224 229 232 234 237 240 241 241 242 244 247 250 253 256 260 262 261 262 264 266 268 268 267 267 270 274 278 281
106 118 131 143 159 176 181 171 168 180 184 178 176 178 182 183 182 184 188 194 204 207 197 192 194 195 188 183 192 201 199 197 202 209 213 216 216 217 219 219 219 220 222 223 223 223 221 219 220 219 215 215 218 221 222 221 221 223 224 227 231 235 238 240 239 240 242 246 249 252 255 259 263 263 262 263 264 264 265 263 260 262 265 269 273 274
113 116 120 149 178 194 197 188 172 179 182 174 173 180 187 187 186 188 189 196 203 203 201 206 199 188 182 179 187 197 198 196 198 202 206 210 211 213 216 217 216 215 217 218 219 219 219 219 220 219 215 214 216 221 224 222 221 222 222 224 229 233 237 238 238 239 244 249 252 255 258 260 262 261 261 263 263 263 262 257 254 257 261 264 267 269
120 103 92 163 187 200 197 190 184 196 191 179 178 185 193 192 192 196 196 200 204 200 205 209 187 178 179 178 182 188 189 190 192 196 201 205 205 206 209 211 212 215 217 220 220 221 221 221 221 219 216 214 215 219 222 221 221 221 221 223 228 232 236 237 237 240 245 251 255 258 259 258 259 259 260 261 261 260 257 252 249 253 258 261 263 266
105 41 53 156 188 199 185 187 203 196 176 175 180 188 195 196 197 199 199 203 207 208 213 207 182 175 179 185 190 190 185 184 186 192 199 203 201 202 205 208 213 219 222 223 223 224 225 225 223 219 217 215 215 218 220 220 221 221 221 223 227 231 234 235 237 242 248 253 257 258 257 256 256 257 257 257 257 254 251 248 247 250 256 260 263 266
25 15 49 140 187 200 184 190 202 183 155 163 182 193 198 200 199 199 200 202 208 213 211 203 189 180 179 184 192 196 192 189 189 190 195 198 200 203 206 209 213 216 218 219 220 223 226 226 223 219 215 214 213 215 218 219 220 221 221 223 227 231 234 235 239 245 251 255 258 257 255 254 253 252 253 253 253 250 249 248 248 251 257 261 263 265
5 16 45 103 164 188 201 203 194 176 156 163 183 195 200 201 201 204 205 202 206 211 204 198 196 185 180 181 187 191 190 190 192 192 193 196 201 206 209 213 217 217 216 215 214 219 222 219 216 216 214 212 212 213 217 218 219 220 221 224 227 231 233 236 241 247 252 254 255 253 252 251 248 248 250 251 250 249 250 251 252 254 259 262 263 265
5 17 32 55 121 161 200 204 190 175 163 168 180 190 198 202 207 215 216 213 215 210 201 200 198 181 170 170 175 179 180 182 188 190 190 195 202 208 212 217 220 219 218 217 215 217 219 213 209 210 211 211 210 212 215 217 218 220 222 225 228 231 233 237 242 247 249 250 250 249 250 250 249 250 251 252 252 252 254 255 255 257 260 261 262 264
355 3 15 17 23 48 173 191 190 181 171 172 180 188 196 203 213 220 220 221 226 220 213 217 215 196 165 154 164 172 173 175 182 186 189 196 201 204 208 214 218 217 216 214 211 212 215 212 207 205 207 207 207 209 213 215 217 219 222 226 228 229 232 238 242 245 247 248 248 248 251 253 254 256 258 257 257 258 259 259 258 258 259 260 262 264
333 340 7 11 2 11 101 175 190 188 183 180 182 188 197 205 215 223 223 223 228 227 226 226 219 202 175 159 160 171 175 177 180 184 192 199 201 202 204 207 213 216 214 212 211 212 214 213 208 205 206 207 206 207 211 215 217 219 223 226 227 228 233 238 242 245 248 249 249 250 254 257 261 264 266 266 265 265 264 263 261 259 259 261 263 265
311 329 4 10 352 350 46 144 180 183 186 191 190 192 200 205 212 222 225 223 226 229 230 228 220 200 174 161 158 165 175 180 184 187 194 200 201 204 207 208 210 214 214 213 213 215 214 211 207 206 206 207 206 206 209 214 217 219 223 225 227 229 233 238 243 247 249 250 251 255 259 263 265 265 266 270 271 269 267 266 264 262 262 263 264 265
313 343 5 2 341 325 335 153 181 183 188 195 196 196 199 202 208 216 222 224 228 233 235 235 230 217 186 162 155 154 164 180 188 192 197 200 201 205 211 213 212 212 213 213 212 212 211 207 205 204 205 205 204 204 209 213 216 219 222 225 228 230 234 240 244 248 250 252 256 260 264 268 268 264 264 270 272 268 267 269 268 265 264 263 263 265
325 353 7 7 349 320 307 251 195 200 197 192 191 191 194 198 201 207 215 221 226 230 234 236 235 231 221 193 165 154 168 186 188 193 198 198 200 205 210 214 215 214 215 215 211 207 205 203 202 203 205 206 204 204 209 213 215 219 222 226 230 233 237 242 246 250 253 256 259 262 266 270 270 267 268 273 272 269 269 271 268 265 264 264 265 267
320 339 347 355 350 318 292 263 201 201 208 197 193 195 198 200 199 199 204 212 216 219 225 231 233 235 236 229 212 204 220 219 202 198 198 196 201 208 207 212 220 220 218 217 211 204 200 199 199 201 203 204 203 205 209 213 216 220 224 228 232 236 240 245 249 254 257 258 261 265 268 272 273 273 273 273 271 270 270 269 266 265 265 266 267 267
315 318 312 313 322 311 288 275 220 201 209 210 210 210 207 203 199 194 196 202 206 207 212 219 225 230 235 238 235 233 237 236 228 221 212 202 204 211 211 218 226 220 212 208 207 205 201 197 197 199 200 201 203 206 211 213 217 222 226 230 234 238 243 248 253 257 259 261 263 266 269 270 270 269 268 266 265 266 267 266 266 266 266 266 267 268
311 306 298 300 306 300 288 281 259 237 235 229 223 217 205 198 196 191 191 195 198 200 203 208 215 223 229 233 236 237 239 238 234 232 230 223 218 218 219 223 227 222 213 206 202 202 200 197 195 196 198 201 205 209 212 216 220 224 228 232 236 240 245 250 254 257 260 263 265 265 264 263 261 259 259 259 260 262 264 266 267 267 267 268 269 271
310 313 303 297 298 293 284 280 270 262 260 241 224 215 205 200 199 195 192 193 193 194 197 201 208 216 221 224 227 231 233 235 234 233 232 229 228 229 230 229 228 227 223 215 208 203 199 196 196 196 199 204 207 210 214 218 222 226 230 234 238 243 247 251 254 258 261 264 263 261 259 257 256 255 255 257 259 262 264 265 267 268 269 270 271 273
294 306 302 294 289 283 286 291 282 266 264 249 224 213 208 207 208 205 199 196 194 194 196 200 205 210 213 217 221 225 226 228 231 232 230 226 225 229 232 233 233 231 228 223 216 208 200 196 197 199 202 206 210 212 216 219 223 227 231 235 240 245 249 253 256 258 259 259 257 256 255 254 254 254 255 256 259 261 263 266 268 269 271 272 274 276
277 290 301 297 285 275 287 301 287 263 271 273 234 212 206 208 215 214 203 197 201 207 206 203 204 206 209 211 216 220 221 220 221 226 226 220 217 218 218 219 222 223 220 215 211 206 201 199 201 205 207 210 212 215 217 221 224 228 232 236 241 245 248 249 249 248 248 249 250 250 251 251 251 253 254 256 259 261 264 267 269 271 273 276 278 279
274 280 299 305 289 272 277 302 295 263 269 281 242 215 211 209 213 218 213 210 218 225 216 206 203 206 208 209 211 216 218 214 214 220 223 219 215 213 207 200 199 201 202 205 205 204 203 203 204 206 208 209 212 215 218 221 225 228 232 236 238 240 241 241 239 239 241 244 246 246 247 249 252 254 256 259 262 264 267 269 272 274 277 279 280 281
278 278 289 299 291 275 275 300 314 280 267 269 243 222 218 214 214 221 223 223 229 227 213 208 208 209 209 209 211 214 215 213 214 219 222 219 220 222 213 200 195 195 196 199 202 202 201 201 202 205 207 209 212 215 218 221 224 226 229 232 233 235 237 238 238 239 242 244 246 247 248 250 253 256 259 262 264 267 269 272 274 277 278 279 280 281
274 273 280 289 288 279 276 288 307 302 281 265 240 226 222 219 221 226 225 226 230 220 210 211 214 214 212 213 215 217 218 216 214 218 221 220 220 226 220 203 196 194 192 191 191 192 196 199 202 205 208 209 211 214 216 218 220 222 225 229 232 235 238 240 241 242 245 247 248 249 251 253 255 257 260 263 267 270 273 275 276 277 277 278 279 281
264 264 276 297 293 278 268 273 290 299 288 256 236 233 230 224 227 229 227 229 232 220 209 212 217 218 217 218 221 224 224 220 216 218 222 222 220 223 221 207 197 194 191 187 186 188 192 197 199 200 201 202 205 209 212 215 217 220 224 228 233 237 240 243 245 246 248 250 252 254 256 257 260 262 265 268 270 272 273 274 275 276 277 278 280 282
Height
5623 5622 5623 5626 5632 5638 5643 5647 5651 5659 5664 5668 5672 5675 5680 5685 5689 5695 5702 5709 5716 5721 5723 5726 5732 5737 5743 5749 5756 5761 5764 5771 5777 5782 5786 5789 5790 5790 5792 5792 5793 5798 5801 5806 5811 5815 5817 5818 5820 5822 5823 5824 5827 5832 5835 5837 5837 5837 5837 5838 5839 5839 5839 5839 5838 5838 5838 5838 5838 5838 5839 5840 5839 5838 5838 5838 5838 5838 5839 5839 5840 5839 5839 5839 5840 5840
5617 5616 5618 5623 5629 5633 5638 5642 5647 5652 5657 5660 5664 5668 5673 5676 5682 5689 5696 5704 5711 5715 5719 5723 5727 5731 5736 5743 5750 5755 5759 5765 5770 5775 5779 5784 5786 5787 5787 5788 5790 5794 5797 5801 5806 5810 5813 5815 5817 5818 5819 5821 5825 5828 5831 5833 5833 5833 5834 5835 5836 5836 5836 5836 5836 5835 5836 5836 5835 5836 5837 5837 5837 5836 5835 5836 5836 5837 5837 5837 5838 5838 5838 5838 5838 5839
5611 5610 5615 5621 5625 5628 5632 5636 5640 5645 5650 5653 5657 5662 5665 5670 5677 5683 5689 5698 5704 5708 5713 5720 5722 5724 5729 5736 5744 5749 5754 5760 5765 5768 5773 5777 5780 5782 5783 5784 5787 5790 5792 5796 5800 5804 5809 5813 5814 5814 5815 5818 5822 5825 5828 5829 5829 5829 5831 5832 5833 5833 5833 5833 5833 5833 5833 5833 5833 5833 5834 5834 5834 5833 5833 5833 5834 5835 5836 5835 5835 5836 5836 5836 5836 5837
5607 5608 5613 5618 5621 5624 5627 5631 5635 5639 5643 5646 5651 5655 5659 5667 5673 5677 5683 5692 5697 5702 5709 5715 5717 5718 5723 5730 5738 5742 5748 5755 5759 5763 5767 5770 5774 5778 5780 5781 5784 5787 5790 5792 5795 5799 5806 5809 5810 5810 5811 5814 5818 5821 5824 5825 5825 5826 5828 5829 5829 5830 5830 5830 5830 5831 5831 5830 5830 5831 5831 5831 5832 5831 5831 5831 5832 5833 5833 5833 5833 5833 5833 5834 5834 5834
5605 5607 5610 5614 5617 5619 5623 5626 5630 5633 5636 5640 5645 5649 5655 5663 5668 5673 5680 5687 5693 5698 5704 5711 5712 5712 5716 5724 5730 5736 5742 5748 5753 5757 5761 5764 5769 5773 5776 5778 5780 5784 5787 5788 5789 5794 5801 5805 5806 5806 5807 5809 5814 5818 5821 5821 5821 5823 5825 5825 5825 5826 5827 5828 5828 5828 5828 5828 5828 5828 5829 5829 5830 5830 5829 5829 5830 5830 5830 5831 5831 5831 5831 5832 5832 5832
5602 5604 5607 5609 5611 5615 5617 5621 5625 5628 5631 5635 5639 5645 5652 5659 5664 5670 5677 5682 5687 5691 5697 5705 5705 5704 5710 5718 5723 5730 5736 5740 5745 5751 5755 5759 5763 5766 5770 5772 5774 5778 5781 5783 5785 5790 5797 5800 5801 5802 5803 5807 5811 5815 5816 5816 5817 5819 5821 5822 5822 5823 5824 5825 5826 5826 5825 5826 5826 5826 5826 5827 5827 5828 5828 5827 5828 5828 5828 5828 5828 5828 5829 5829 5829 5829
5598 5601 5603 5605 5607 5610 5613 5616 5621 5624 5627 5630 5635 5642 5648 5654 5660 5665 5672 5678 5680 5684 5692 5699 5699 5699 5707 5713 5718 5724 5729 5734 5739 5743 5749 5754 5757 5761 5766 5767 5769 5772 5775 5779 5782 5786 5791 5795 5797 5799 5802 5805 5808 5810 5811 5812 5814 5816 5817 5818 5819 5820 5821 5822 5823 5823 5823 5823 5823 5824 5824 5824 5825 5825 5826 5826 5826 5826 5826 5826 5826 5826 5826 5827 5827 5827
5596 5598 5600 5602 5604 5607 5609 5613 5617 5622 5623 5625 5633 5640 5645 5650 5656 5660 5667 5672 5675 5680 5686 5691 5696 5698 5701 5708 5714 5718 5723 5728 5733 5737 5742 5748 5752 5757 5761 5762 5765 5768 5772 5776 5779 5782 5787 5791 5795 5798 5801 5803 5805 5805 5807 5809 5811 5812 5813 5814 5815 5816 5817 5819 5820 5820 5820 5821 5821 5821 5822 5822 5822 5823 5823 5823 5824 5824 5824 5823 5823 5823 5824 5825 5825 5824
5593 5594 5596 5599 5602 5603 5606 5610 5615 5619 5620 5623 5631 5637 5642 5647 5652 5657 5662 5667 5672 5675 5675 5681 5690 5693 5695 5703 5709 5713 5716 5720 5726 5732 5736 5741 5746 5753 5757 5758 5761 5765 5768 5773 5776 5778 5783 5788 5792 5796 5799 5800 5800 5801 5804 5806 5808 5808 5809 5811 5812 5813 5815 5816 5816 5817 5817 5818 5819 5819 5820 5820 5820 5821 5820 5821 5822 5822 5821 5821 5821 5822 5822 5822 5822 5822
5589 5591 5593 5595 5597 5600 5604 5607 5612 5616 5618 5623 5629 5633 5638 5643 5648 5653 5658 5664 5669 5667 5668 5675 5683 5687 5691 5697 5703 5707 5709 5713 5721 5728 5733 5737 5741 5747 5752 5755 5759 5761 5765 5769 5772 5775 5779 5784 5789 5793 5795 5796 5797 5799 5801 5803 5804 5805 5806 5807 5809 5810 5812 5813 5813 5814 5815 5816 5816 5817 5818 5818 5818 5818 5818 5819 5819 5819 5819 5819 5819 5819 5820 5819 5819 5819
5586 5588 5589 5590 5593 5596 5600 5603 5607 5612 5616 5621 5627 5631 5635 5639 5644 5648 5652 5662 5664 5660 5665 5673 5678 5684 5688 5691 5697 5702 5704 5710 5717 5723 5727 5732 5737 5742 5747 5751 5755 5758 5761 5766 5769 5772 5776 5781 5785 5788 5791 5792 5794 5796 5798 5799 5800 5802 5803 5805 5806 5808 5809 5810 5810 5811 5813 5813 5814 5815 5816 5816 5816 5816 5816 5816 5816 5816 5817 5816 5816 5817 5817 5817 5817 5817
5582 5584 5586 5588 5592 5595 5597 5598 5601 5605 5611 5617 5623 5627 5632 5636 5640 5643 5647 5654 5653 5653 5664 5671 5674 5678 5681 5685 5694 5699 5703 5708 5713 5716 5721 5728 5734 5738 5742 5747 5751 5754 5759 5763 5765 5769 5772 5776 5782 5784 5787 5789 5791 5793 5795 5796 5798 5799 5801 5802 5804 5805 5805 5807 5808 5809 5810 5812 5813 5813 5814 5814 5814 5814 5814 5814 5814 5814 5814 5814 5814 5814 5814 5814 5814 5814
5578 5581 5583 5586 5590 5593 5595 5597 5599 5602 5606 5611 5617 5622 5626 5631 5635 5637 5641 5645 5646 5651 5662 5668 5670 5672 5673 5680 5689 5696 5701 5705 5708 5713 5719 5726 5731 5734 5737 5741 5746 5750 5756 5760 5761 5764 5768 5773 5778 5781 5783 5786 5788 5790 5792 5793 5795 5797 5798 5800 5801 5801 5802 5804 5805 5807 5808 5809 5810 5811 5812 5812 5812 5812 5812 5812 5812 5812 5812 5812 5812 5812 5812 5812 5812 5812
5576 5577 5580 5583 5586 5589 5592 5596 5599 5602 5604 5608 5613 5618 5621 5625 5630 5633 5637 5641 5644 5651 5659 5665 5667 5666 5670 5677 5683 5691 5699 5703 5706 5710 5717 5723 5727 5730 5733 5736 5741 5747 5753 5756 5758 5761 5765 5770 5775 5777 5780 5783 5785 5787 5788 5789 5791 5794 5795 5797 5797 5798 5800 5801 5803 5805 5806 5807 5808 5809 5810 5809 5809 5810 5810 5810 5810 5810 5810 5810 5810 5809 5810 5809 5809 5809
5573 5575 5578 5580 5584 5587 5591 5594 5599 5603 5604 5606 5611 5616 5619 5622 5627 5631 5636 5640 5643 5649 5658 5662 5661 5661 5669 5678 5683 5689 5696 5701 5704 5708 5714 5720 5723 5727 5728 5731 5738 5746 5750 5752 5755 5758 5762 5767 5770 5773 5777 5780 5782 5783 5785 5786 5788 5790 5792 5793 5794 5796 5798 5799 5801 5802 5804 5805 5806 5807 5807 5807 5807 5808 5808 5808 5808 5808 5808 5808 5807 5807 5808 5807 5807 5807
5571 5573 5576 5579 5581 5585 5588 5593 5598 5602 5603 5605 5608 5611 5616 5621 5625 5630 5634 5639 5644 5648 5654 5656 5656 5660 5669 5676 5682 5688 5693 5698 5702 5706 5712 5715 5718 5722 5723 5726 5735 5743 5746 5747 5751 5755 5760 5763 5766 5769 5774 5776 5778 5780 5781 5783 5785 5787 5789 5790 5792 5794 5795 5797 5798 5800 5801 5802 5803 5804 5804 5804 5805 5805 5806 5806 5806 5806 5806 5805 5805 5806 5805 5805 5804 5804
5570 5572 5574 5576 5578 5581 5585 5590 5594 5597 5601 5605 5606 5608 5615 5622 5625 5628 5632 5637 5641 5645 5651 5655 5658 5664 5670 5673 5678 5684 5690 5696 5699 5703 5707 5710 5713 5717 5719 5722 5731 5739 5742 5744 5748 5753 5757 5760 5763 5767 5771 5773 5775 5776 5778 5780 5781 5783 5785 5787 5790 5792 5793 5794 5795 5797 5798 5800 5801 5801 5802 5802 5803 5803 5803 5803 5803 5803 5803 5803 5803 5803 5803 5802 5802 5802
5568 5570 5573 5575 5577 5580 5583 5586 5589 5592 5597 5603 5606 5610 5618 5623 5623 5625 5630 5635 5638 5642 5649 5655 5658 5663 5667 5670 5675 5681 5686 5691 5697 5701 5703 5706 5709 5712 5715 5719 5727 5735 5738 5741 5746 5751 5754 5757 5759 5764 5768 5770 5772 5773 5774 5776 5777 5780 5783 5786 5788 5789 5790 5791 5793 5795 5796 5797 5798 5799 5799 5800 5800 5801 5801 5801 5801 5801 5801 5801 5801 5801 5800 5799 5799 5800
5567 5569 5571 5572 5574 5577 5580 5582 5585 5589 5593 5599 5606 5612 5615 5618 5621 5623 5627 5632 5637 5642 5648 5652 5655 5659 5662 5668 5675 5680 5683 5688 5694 5698 5700 5703 5706 5709 5713 5717 5724 5731 5734 5737 5742 5746 5750 5753 5756 5761 5765 5767 5768 5769 5769 5771 5774 5778 5781 5783 5785 5786 5787 5788 5790 5792 5794 5795 5796 5796 5797 5797 5798 5799 5799 5799 5799 5799 5799 5799 5799 5798 5797 5797 5797 5798
5566 5567 5569 5569 5571 5573 5576 5578 5582 5587 5592 5598 5605 5609 5610 5613 5618 5621 5625 5630 5635 5641 5647 5651 5654 5657 5659 5666 5675 5680 5683 5688 5693 5696 5698 5701 5704 5708 5712 5715 5720 5727 5730 5733 5737 5742 5747 5750 5753 5759 5762 5763 5764 5764 5765 5768 5772 5776 5778 5780 5782 5783 5784 5786 5788 5790 5791 5792 5793 5793 5794 5795 5796 5796 5796 5796 5796 5796 5796 5796 5796 5796 5795 5795 5796 5796
5566 5567 5568 5568 5569 5571 5574 5577 5582 5587 5593 5598 5602 5606 5610 5614 5618 5620 5623 5629 5634 5640 5645 5648 5652 5655 5659 5666 5675 5680 5685 5689 5693 5695 5697 5700 5703 5706 5709 5712 5717 5723 5726 5730 5734 5739 5744 5747 5750 5755 5758 5758 5758 5759 5761 5764 5769 5773 5775 5777 5779 5780 5782 5784 5786 5788 5788 5790 5790 5790 5791 5792 5793 5794 5794 5794 5794 5794 5794 5794 5794 5794 5793 5794 5794 5794
5567 5567 5568 5568 5569 5571 5573 5578 5585 5590 5595 5599 5602 5606 5612 5617 5620 5620 5622 5628 5634 5639 5643 5646 5650 5655 5661 5668 5673 5678 5683 5688 5692 5694 5696 5698 5700 5704 5706 5709 5714 5719 5723 5727 5731 5736 5741 5743 5747 5751 5753 5753 5754 5755 5758 5762 5767 5770 5772 5774 5775 5777 5779 5782 5783 5785 5785 5787 5787 5787 5788 5789 5790 5791 5791 5792 5792 5792 5792 5792 5792 5792 5792 5792 5792 5792
5569 5569 5569 5569 5570 5571 5573 5577 5584 5591 5595 5600 5603 5607 5611 5615 5618 5621 5623 5629 5635 5640 5643 5646 5650 5655 5663 5669 5673 5676 5681 5687 5691 5693 5695 5697 5699 5701 5704 5707 5711 5715 5719 5723 5727 5732 5737 5740 5744 5747 5748 5749 5751 5753 5756 5760 5764 5767 5769 5771 5772 5774 5777 5779 5780 5781 5783 5784 5784 5785 5785 5787 5787 5788 5789 5789 5790 5790 5790 5790 5790 5790 5790 5790 5789 5790
5571 5571 5571 5571 5572 5574 5575 5578 5584 5590 5595 5598 5602 5606 5609 5613 5618 5622 5625 5629 5634 5639 5643 5645 5649 5656 5664 5669 5673 5676 5680 5684 5689 5691 5692 5694 5697 5699 5701 5705 5709 5712 5716 5719 5723 5728 5732 5736 5739 5742 5744 5746 5747 5750 5753 5757 5760 5763 5765 5768 5770 5772 5774 5776 5777 5779 5780 5781 5781 5782 5783 5784 5785 5786 5786 5787 5787 5787 5787 5788 5788 5788 5787 5787 5787 5787
5574 5573 5574 5574 5575 5577 5579 5582 5585 5590 5594 5598 5601 5605 5609 5613 5617 5621 5626 5629 5631 5635 5640 5642 5646 5653 5661 5666 5671 5675 5678 5681 5685 5688 5689 5691 5693 5695 5698 5702 5706 5710 5713 5716 5719 5724 5728 5731 5735 5738 5740 5743 5745 5747 5751 5754 5757 5760 5763 5765 5767 5769 5772 5773 5775 5776 5777 5778 5778 5779 5780 5781 5782 5783 5784 5785 5785 5785 5785 5785 5786 5786 5785 5785 5785 5784
5577 5577 5578 5578 5579 5581 5584 5587 5591 5594 5597 5600 5602 5606 5610 5614 5615 5618 5623 5626 5628 5632 5636 5638 5641 5648 5656 5661 5665 5670 5674 5678 5682 5684 5685 5687 5689 5691 5695 5699 5703 5706 5709 5712 5715 5720 5725 5729 5732 5735 5737 5740 5742 5745 5748 5751 5754 5757 5760 5762 5764 5767 5769 5770 5772 5774 5775 5775 5776 5776 5777 5779 5780 5781 5782 5782 5783 5783 5782 5783 5783 5783 5783 5782 5782 5782
5579 5580 5581 5582 5583 5585 5588 5591 5595 5598 5600 5602 5605 5608 5612 5615 5616 5617 5619 5621 5625 5630 5633 5636 5640 5646 5651 5655 5659 5663 5669 5674 5678 5679 5681 5683 5684 5687 5692 5697 5700 5702 5705 5709 5712 5717 5722 5726 5729 5731 5734 5737 5739 5742 5746 5749 5752 5755 5757 5759 5761 5764 5766 5768 5770 5771 5772 5772 5773 5774 5775 5776 5777 5778 5779 5780 5780 5780 5780 5780 5780 5780 5780 5780 5779 5779
5582 5583 5585 5586 5587 5589 5590 5592 5595 5598 5599 5602 5605 5609 5613 5615 5617 5619 5621 5622 5623 5626 5630 5636 5640 5643 5647 5651 5655 5657 5661 5668 5673 5675 5676 5679 5681 5684 5689 5694 5697 5700 5703 5706 5710 5714 5719 5722 5725 5728 5731 5733 5736 5740 5743 5746 5749 5751 5754 5756 5758 5761 5763 5765 5767 5768 5769 5769 5770 5772 5773 5774 5775 5776 5777 5777 5778 5778 5778 5778 5778 5777 5777 5777 5777 5777
5585 5586 5587 5589 5590 5592 5593 5594 5596 5598 5599 5601 5604 5608 5612 5615 5618 5621 5625 5626 5626 5625 5628 5633 5637 5639 5642 5646 5651 5654 5657 5661 5668 5671 5673 5676 5680 5683 5686 5691 5695 5698 5701 5704 5707 5711 5715 5718 5721 5725 5728 5730 5733 5737 5740 5742 5745 5748 5751 5754 5756 5758 5760 5763 5765 5765 5765 5767 5768 5769 5770 5771 5772 5773 5774 5774 5775 5775 5775 5775 5775 5775 5775 5775 5775 5775
5588 5590 5591 5592 5593 5594 5595 5596 5597 5598 5599 5600 5604 5608 5612 5616 5618 5620 5623 5626 5626 5625 5626 5629 5634 5637 5639 5643 5648 5651 5653 5657 5662 5667 5670 5673 5677 5679 5682 5687 5691 5694 5697 5701 5704 5708 5711 5714 5717 5721 5725 5727 5730 5734 5737 5740 5743 5746 5749 5751 5753 5755 5758 5760 5762 5762 5763 5764 5765 5766 5768 5769 5770 5770 5771 5771 5772 5772 5772 5772 5772 5772 5772 5773 5773 5773
5592 5594 5595 5595 5595 5595 5596 5597 5599 5600 5602 5603 5606 5609 5612 5615 5618 5619 5621 5623 5624 5625 5626 5629 5632 5635 5638 5642 5646 5649 5651 5654 5658 5663 5667 5670 5673 5676 5678 5682 5686 5690 5694 5697 5701 5704 5707 5710 5714 5718 5721 5724 5727 5731 5734 5737 5740 5743 5745 5748 5750 5752 5754 5757 5758 5759 5760 5761 5762 5764 5765 5766 5767 5768 5768 5768 5769 5769 5769 5769 5770 5770 5770 5770 5770 5770
5595 5596 5597 5597 5597 5597 5598 5599 5601 5602 5604 5606 5608 5610 5612 5615 5618 5620 5622 5624 5625 5627 5628 5629 5630 5634 5638 5641 5643 5646 5649 5652 5655 5659 5663 5666 5669 5673 5676 5679 5683 5687 5690 5694 5697 5701 5704 5708 5712 5715 5719 5722 5725 5729 5732 5735 5737 5740 5742 5745 5747 5749 5751 5753 5755 5756 5757 5758 5760 5761 5763 5764 5764 5765 5765 5765 5765 5766 5766 5766 5767 5767 5767 5767 5768 5768
5598 5597 5597 5598 5598 5598 5599 5602 5603 5603 5606 5608 5610 5612 5614 5617 5619 5621 5623 5624 5626 5628 5628 5627 5628 5632 5636 5639 5642 5644 5647 5650 5653 5657 5660 5663 5667 5670 5673 5677 5680 5684 5687 5691 5695 5698 5702 5706 5710 5713 5717 5720 5723 5726 5729 5732 5734 5737 5740 5742 5743 5745 5748 5750 5751 5752 5754 5756 5757 5758 5760 5760 5761 5761 5762 5762 5762 5763 5763 5764 5764 5764 5765 5765 5765 5765
5599 5598 5598 5599 5600 5600 5602 5603 5604 5605 5607 5609 5611 5612 5614 5617 5620 5621 5623 5624 5626 5627 5628 5628 5629 5631 5633 5637 5640 5643 5646 5649 5652 5655 5658 5662 5665 5668 5671 5674 5677 5680 5685 5689 5692 5696 5699 5704 5707 5710 5713 5716 5719 5722 5726 5728 5731 5734 5736 5738 5740 5742 5745 5747 5748 5750 5752 5753 5754 5756 5757 5757 5758 5758 5758 5759 5759 5760 5761 5761 5762 5762 5762 5762 5762 5762
5600 5599 5600 5600 5601 5602 5603 5604 5605 5606 5608 5609 5611 5611 5613 5616 5619 5620 5622 5624 5625 5626 5627 5629 5631 5632 5633 5634 5637 5639 5642 5646 5650 5653 5656 5660 5664 5667 5670 5673 5675 5679 5683 5686 5689 5692 5696 5700 5702 5705 5709 5712 5716 5719 5723 5726 5728 5731 5733 5735 5737 5740 5742 5744 5745 5747 5749 5750 5752 5753 5754 5754 5755 5755 5755 5756 5756 5757 5758 5758 5759 5759 5759 5759 5759 5759
5601 5601 5601 5601 5602 5603 5604 5604 5605 5607 5608 5610 5612 5612 5613 5615 5617 5618 5621 5623 5625 5626 5628 5629 5630 5632 5634 5635 5635 5636 5638 5642 5647 5651 5655 5659 5663 5667 5669 5671 5673 5677 5682 5684 5687 5690 5693 5696 5699 5703 5707 5710 5713 5717 5720 5723 5726 5728 5731 5733 5735 5738 5739 5741 5742 5744 5746 5748 5749 5750 5750 5751 5752 5752 5752 5753 5754 5754 5755 5755 5756 5756 5756 5756 5756 5755
5603 5602 5602 5602 5603 5603 5604 5605 5606 5607 5610 5611 5613 5614 5615 5617 5617 5617 5620 5623 5625 5626 5628 5629 5630 5632 5634 5635 5635 5635 5638 5641 5646 5650 5655 5658 5660 5663 5666 5669 5671 5674 5679 5683 5685 5688 5690 5693 5697 5700 5703 5706 5710 5714 5717 5721 5724 5726 5728 5730 5733 5735 5736 5738 5739 5741 5743 5745 5746 5747 5747 5747 5748 5749 5749 5750 5750 5751 5751 5752 5752 5753 5753 5752 5752 5752
5604 5603 5603 5603 5603 5603 5604 5605 5606 5608 5610 5611 5613 5614 5616 5617 5617 5618 5621 5623 5624 5625 5627 5628 5629 5632 5633 5634 5635 5637 5639 5642 5645 5649 5652 5654 5657 5660 5664 5667 5669 5672 5676 5680 5683 5685 5688 5691 5695 5698 5700 5704 5707 5711 5714 5718 5721 5723 5725 5728 5730 5732 5733 5734 5736 5738 5740 5742 5743 5743 5744 5744 5745 5745 5746 5746 5747 5747 5747 5748 5748 5749 5749 5748 5748 5748
5605 5604 5604 5604 5604 5604 5605 5606 5607 5608 5610 5611 5612 5614 5615 5617 5618 5619 5620 5622 5622 5625 5627 5628 5630 5632 5634 5635 5637 5639 5642 5644 5645 5648 5650 5652 5656 5659 5662 5665 5669 5671 5675 5678 5680 5683 5686 5690 5693 5695 5698 5701 5704 5708 5711 5715 5717 5720 5722 5725 5727 5728 5730 5731 5732 5734 5737 5739 5739 5740 5741 5741 5741 5741 5741 5742 5742 5743 5743 5744 5745 5745 5745 5745 5745 5744
5605 5605 5604 5604 5605 5606 5606 5606 5607 5608 5609 5610 5612 5613 5615 5617 5618 5619 5620 5621 5623 5626 5629 5630 5631 5633 5635 5636 5638 5640 5643 5645 5646 5648 5651 5653 5656 5659 5662 5665 5667 5670 5672 5675 5677 5680 5684 5687 5690 5693 5695 5699 5702 5706 5709 5712 5714 5717 5720 5722 5723 5725 5726 5727 5729 5731 5733 5735 5736 5737 5737 5737 5736 5736 5737 5738 5738 5739 5739 5740 5741 5741 5741 5741 5741 5741
5606 5605 5605 5605 5606 5606 5606 5606 5607 5608 5609 5610 5611 5612 5614 5615 5617 5618 5620 5622 5623 5625 5628 5629 5630 5631 5634 5637 5639 5641 5643 5645 5648 5650 5652 5654 5657 5659 5662 5663 5665 5667 5670 5672 5675 5678 5681 5684 5687 5690 5693 5696 5700 5703 5706 5709 5712 5714 5716 5718 5719 5721 5722 5724 5726 5728 5730 5732 5734 5734 5734 5733 5732 5733 5733 5734 5735 5735 5736 5736 5737 5737 5737 5737 5737 5737
5606 5606 5606 5605 5605 5606 5606 5606 5607 5608 5608 5609 5610 5611 5612 5614 5615 5617 5619 5621 5621 5623 5625 5627 5628 5630 5633 5635 5638 5641 5643 5645 5648 5651 5652 5654 5656 5658 5661 5662 5664 5665 5668 5671 5674 5676 5678 5681 5684 5687 5690 5693 5697 5700 5703 5706 5708 5710 5712 5714 5716 5717 5719 5720 5722 5724 5727 5729 5730 5730 5730 5729 5729 5729 5730 5730 5731 5732 5732 5732 5732 5733 5733 5733 5733 5733
5606 5606 5606 5605 5605 5606 5606 5606 5607 5607 5608 5609 5610 5610 5611 5613 5614 5616 5618 5620 5620 5621 5623 5624 5627 5629 5631 5633 5637 5641 5642 5644 5647 5651 5653 5654 5655 5657 5659 5661 5663 5664 5667 5669 5672 5674 5676 5679 5682 5685 5688 5691 5694 5697 5699 5702 5705 5707 5709 5710 5712 5713 5715 5717 5719 5721 5723 5725 5726 5726 5726 5726 5726 5726 5727 5727 5728 5728 5728 5728 5729 5729 5729 5729 5729 5729
5606 5606 5606 5605 5605 5605 5606 5606 5606 5606 5607 5608 5609 5609 5611 5612 5613 5615 5616 5618 5620 5621 5621 5623 5625 5628 5631 5633 5636 5638 5640 5642 5646 5649 5652 5654 5655 5656 5658 5660 5662 5664 5666 5667 5669 5671 5673 5676 5679 5682 5685 5687 5690 5693 5696 5699 5701 5703 5705 5706 5708 5710 5712 5714 5716 5717 5719 5720 5721 5722 5722 5722 5722 5723 5723 5724 5724 5724 5725 5725 5725 5725 5725 5725 5725 5725
5605 5606 5606 5606 5606 5605 5605 5606 5605 5606 5606 5606 5607 5608 5610 5612 5613 5613 5614 5615 5617 5619 5620 5621 5623 5626 5630 5632 5633 5634 5637 5641 5644 5645 5647 5651 5653 5655 5657 5659 5661 5662 5664 5665 5666 5668 5670 5672 5675 5678 5681 5684 5687 5690 5693 5695 5697 5699 5701 5703 5705 5707 5709 5710 5712 5713 5715 5716 5716 5717 5717 5718 5718 5719 5719 5720 5720 5721 5721 5721 5721 5721 5721 5721 5721 5721
5605 5605 5605 5605 5605 5605 5604 5604 5604 5605 5605 5605 5606 5607 5608 5610 5611 5611 5612 5613 5615 5617 5618 5619 5621 5624 5627 5629 5630 5632 5636 5641 5643 5642 5643 5646 5649 5651 5653 5656 5658 5658 5659 5661 5662 5664 5667 5669 5672 5675 5678 5681 5683 5686 5689 5691 5694 5696 5698 5700 5701 5703 5704 5706 5708 5709 5710 5711 5712 5712 5713 5714 5714 5715 5715 5716 5717 5717 5717 5717 5717 5717 5717 5717 5717 5716
5604 5604 5604 5605 5604 5604 5603 5603 5603 5604 5605 5605 5605 5606 5607 5608 5609 5610 5611 5612 5614 5616 5617 5618 5619 5621 5623 5625 5628 5631 5634 5638 5639 5639 5638 5641 5643 5643 5645 5649 5652 5654 5656 5657 5658 5660 5663 5666 5669 5672 5674 5677 5680 5682 5685 5687 5690 5692 5694 5696 5697 5699 5700 5702 5704 5705 5706 5707 5707 5708 5709 5710 5710 5711 5712 5712 5713 5713 5713 5713 5713 5713 5713 5713 5712 5712
5604 5604 5604 5604 5604 5603 5603 5603 5604 5604 5604 5605 5605 5605 5606 5607 5608 5609 5611 5612 5613 5614 5615 5616 5616 5618 5621 5623 5626 5628 5631 5635 5636 5635 5634 5636 5639 5640 5641 5643 5646 5650 5652 5653 5654 5656 5659 5662 5665 5668 5671 5674 5677 5679 5681 5684 5686 5688 5689 5691 5693 5695 5697 5698 5700 5701 5702 5703 5704 5705 5706 5706 5707 5707 5708 5708 5708 5709 5709 5709 5709 5709 5708 5708 5707 5706
5603 5603 5603 5603 5603 5602 5602 5603 5604 5603 5603 5604 5604 5605 5605 5606 5607 5608 5609 5611 5612 5612 5612 5614 5615 5617 5620 5622 5624 5626 5629 5631 5632 5632 5633 5636 5639 5642 5645 5647 5648 5649 5649 5649 5651 5654 5658 5660 5663 5666 5669 5671 5674 5676 5678 5680 5682 5684 5685 5687 5689 5691 5693 5695 5696 5697 5699 5700 5701 5702 5702 5703 5703 5703 5704 5704 5704 5704 5704 5704 5704 5704 5703 5703 5702 5700
5602 5602 5602 5602 5602 5601 5602 5603 5604 5603 5603 5603 5604 5604 5605 5606 5606 5607 5607 5609 5610 5610 5611 5613 5615 5617 5619 5621 5623 5624 5626 5627 5629 5631 5633 5636 5639 5642 5646 5648 5649 5650 5650 5649 5649 5652 5657 5659 5661 5663 5666 5668 5670 5673 5675 5677 5679 5681 5682 5684 5685 5687 5689 5691 5692 5694 5695 5696 5697 5697 5698 5699 5699 5700 5700 5700 5700 5700 5700 5700 5699 5698 5698 5697 5696 5695
5600 5600 5601 5601 5600 5600 5601 5602 5603 5603 5603 5603 5603 5604 5605 5606 5606 5605 5606 5607 5608 5609 5611 5613 5615 5617 5618 5619 5620 5621 5623 5625 5627 5630 5633 5636 5638 5639 5642 5646 5647 5648 5650 5650 5649 5649 5653 5656 5658 5660 5662 5664 5666 5669 5671 5674 5676 5678 5679 5681 5682 5683 5685 5687 5688 5689 5691 5692 5692 5693 5694 5695 5695 5695 5696 5696 5696 5696 5695 5694 5694 5693 5692 5692 5691 5690